Tapachula Airport, Mexico

2:16 PM CDT on May 29, 2017 (GMT -0500)
Tapachula International

Weather History for MMTP - January, 2013

Change the Weather History Date:

Monday, January 21, 2013

  Actual Average Record
Temperature  
Mean Temperature 80 °F -  
Max Temperature 87 °F 86 °F 89 °F (1997)
Min Temperature 73 °F 70 °F 68 °F (2014)
Cooling Degree Days 15    
Growing Degree Days 30 (Base 50)    
Moisture  
Dew Point 71 °F    
Average Humidity 73    
Maximum Humidity 89    
Minimum Humidity 55    
Precipitation  
Precipitation 0.00 in - - ()
Sea Level Pressure  
Sea Level Pressure 29.92 in    
Wind  
Wind Speed 2 mph ()    
Max Wind Speed 12 mph    
Max Gust Speed -    
Visibility 10.0 miles    
Events      
Averages and records for this station are not official NWS values.
T = Trace of Precipitation, MM = Missing Value Source: Averaged Metar Reports

Daily Weather History Graph

Daily Weather History Graph

Search for Another Location

Airport or City:

Trip Planner

Search our weather history database for the weather conditions in past years. The results will help you decide how hot, cold, wet, or windy it might be!

Date:

Astronomy

Jan. 21, 2013 Rise Set
Actual Time 6:38 AM CST 6:02 PM CST
Civil Twilight 6:16 AM CST 6:25 PM CST
Nautical Twilight 5:50 AM CST 6:51 PM CST
Astronomical Twilight 5:24 AM CST 7:17 PM CST
Moon 1:45 PM CST (1/21) 2:06 AM CST (1/21)
Length of Visible Light 12h 09m
Length of Day
11h 23m
Waxing Gibbous, 75% of the Moon is Illuminated
Jan 21
Waxing Gibbous
Jan 26
Full
Feb 3
Last Quarter
Feb 10
New
Feb 17
First Quarter

Hourly Weather History & Observations

Time (CST) Temp. Heat Index Dew Point Humidity Pressure Visibility Wind Dir Wind Speed Gust Speed Precip Events Conditions
12:40 AM 75.2 °F - 69.8 °F 83% 29.93 in 10.0 mi Calm Calm - N/A   Partly Cloudy
1:40 AM 75.2 °F - 69.8 °F 83% 29.93 in 10.0 mi Calm Calm - N/A   Partly Cloudy
2:40 AM 75.2 °F - 69.8 °F 83% 29.87 in 10.0 mi Calm Calm - N/A   Partly Cloudy
3:42 AM 73.4 °F - 68.0 °F 83% 29.90 in 10.0 mi Calm Calm - N/A   Partly Cloudy
5:40 AM 75.2 °F - 66.2 °F 73% 29.93 in 10.0 mi Calm Calm - N/A   Partly Cloudy
6:40 AM 73.4 °F - 66.2 °F 78% 29.94 in 10.0 mi Calm Calm - N/A   Scattered Clouds
7:50 AM 75.2 °F - 66.2 °F 73% 29.98 in 10.0 mi Calm Calm - N/A   Scattered Clouds
8:45 AM 80.6 °F 83.9 °F 69.8 °F 70% 29.97 in 10.0 mi Calm Calm - N/A   Mostly Cloudy
9:40 AM 84.2 °F 90.9 °F 73.4 °F 70% 30.00 in 10.0 mi Calm Calm - N/A   Mostly Cloudy
10:40 AM 87.8 °F 93.8 °F 71.6 °F 58% 30.00 in 10.0 mi Calm Calm - N/A   Mostly Cloudy
11:45 AM 87.8 °F 92.6 °F 69.8 °F 55% 29.91 in 10.0 mi WSW 8.1 mph - N/A   Mostly Cloudy
12:40 PM 87.8 °F 92.6 °F 69.8 °F 55% 29.92 in 10.0 mi WSW 9.2 mph - N/A   Mostly Cloudy
1:50 PM 84.2 °F 87.3 °F 68.0 °F 58% 29.92 in 10.0 mi WSW 11.5 mph - N/A   Mostly Cloudy
2:40 PM 86.0 °F 91.8 °F 71.6 °F 62% 29.91 in 10.0 mi SSW 11.5 mph - N/A   Mostly Cloudy
3:40 PM 86.0 °F 91.8 °F 71.6 °F 62% 29.87 in 10.0 mi SSW 11.5 mph - N/A   Mostly Cloudy
4:40 PM 84.2 °F 89.6 °F 71.6 °F 66% 29.86 in 10.0 mi SSW 11.5 mph - N/A   Scattered Clouds
5:40 PM 84.2 °F 89.6 °F 71.6 °F 66% 29.90 in 10.0 mi SSW 11.5 mph - N/A   Scattered Clouds
6:40 PM 80.6 °F 84.6 °F 71.6 °F 74% 29.87 in 10.0 mi Calm Calm - N/A   Scattered Clouds
7:40 PM 78.8 °F - 73.4 °F 83% 29.90 in 10.0 mi Calm Calm - N/A   Scattered Clouds
8:40 PM 78.8 °F - 73.4 °F 83% 29.88 in 10.0 mi Calm Calm - N/A   Partly Cloudy
9:40 PM 78.8 °F - 73.4 °F 83% 29.92 in 10.0 mi Calm Calm - N/A   Partly Cloudy
10:40 PM 78.8 °F - 73.4 °F 83% 29.92 in 10.0 mi Calm Calm - N/A   Partly Cloudy
11:40 PM 75.2 °F - 71.6 °F 89% 29.88 in 10.0 mi Calm Calm - N/A   Partly Cloudy